Regional Weather Roundup
Issued by NWS Upton, NY

Current Version | Previous Version | Text Only | Print | Product List | Glossary Off
Versions: 1 2 3 4 5 6 7 8 9 10 11 12 13 14 15 16 17 18 19 20 21 22 23 24 25 26 27 28 29 30 31 32 33 34 35 36 37 38 39 40 41 42 43 44 45 46 47 48 49 50
689 ASUS41 KOKX 300204 RWROKX REGIONAL WEATHER ROUNDUP NATIONAL WEATHER SERVICE NEW YORK NY 1000 PM EDT MON AUG 29 2016 NOTE: "FAIR" INDICATES FEW OR NO CLOUDS BELOW 12,000 FEET WITH NO SIGNIFICANT WEATHER AND/OR OBSTRUCTIONS TO VISIBILITY. NYZ071-072-176-178-NJZ106-104-300300- NEW YORK CITY METRO AREA CITY SKY/WX TMP DP RH WIND PRES REMARKS Central Park CLEAR 80 57 45 NE8 30.15S LaGuardia APRT PTCLDY 82 57 42 N10 30.12R Kennedy INTL PTCLDY 80 60 50 NE9 30.13R Newark/Liberty PTCLDY 80 58 46 N12 30.12R Bronx Bot Gard N/A 77 55 47 N2 30.13F Wall St Helipt CLEAR 81 61 50 NW6 30.13R Teterboro CLEAR 79 54 41 N5 30.12R $$ NYZ177-179-078>081-300300- LONG ISLAND NEW YORK CITY SKY/WX TMP DP RH WIND PRES REMARKS Farmingdale CLEAR 78 58 49 N8 30.12R MacArthur/ISP CLEAR 76 58 53 N7 30.12R Shirley CLEAR 75 59 57 N3 30.13R Riverhead NOT AVBL Westhampton CLEAR 66 57 72 CALM 30.14R Southampton N/A 73 64 73 NW2 30.08S Bridgehampton N/A 70 63 78 CALM 30.11R East Hampton FAIR 65 61 88 N3 30.12R Montauk N/A 72 64 76 CALM 30.14R $$ NYZ052-065-067-300300- HUDSON VALLEY CITY SKY/WX TMP DP RH WIND PRES REMARKS White Plains CLEAR 73 56 54 N6 30.14R Newburgh CLEAR 72 61 68 N6 30.17R Montgomery CLEAR 66 60 81 CALM 30.16R Poughkeepsie CLEAR 64 58 80 NE5 30.14R Albany MOCLDY 69 57 65 N6 30.18R $$ NJZ001-105-106-008-010-013-015-019>022-104-300300- NEW JERSEY CITY SKY/WX TMP DP RH WIND PRES REMARKS Newark/Liberty PTCLDY 80 58 46 N12 30.12R Teterboro CLEAR 79 54 41 N5 30.12R Caldwell CLEAR 73 61 65 CALM 30.15R Morristown PTCLDY 66 63 88 CALM 30.15R Somerville CLEAR 69 63 81 CALM 30.12R Linden FAIR 80 57 45 N7 30.14S Sussex CLEAR 64 62 93 CALM 30.17R Abdover N/A 65 61 87 CALM 30.17S Trenton CLEAR 76 60 57 N6 30.13R Millville CLEAR 81 63 54 N9 30.11R Atlantic City PTCLDY 78 68 71 NE7 30.10R Wrightstown CLEAR 73 62 66 N6 30.10R Toms River CLEAR 74 64 71 N5 30.12S Belmar CLEAR 75 61 61 NW3 30.13R $$ PAZ047>061-062-071-300300- EASTERN PENNSYLVANIA CITY SKY/WX TMP DP RH WIND PRES REMARKS Philadelphia CLEAR 83 60 45 N9 30.12R Allentown CLEAR 69 60 73 N3 30.16R Scranton CLEAR 70 59 68 E5 30.19R $$ CTZ002-004>006-009-010-012-RIZ004-006-007-MAZ004-011-015-300300- SOUTHERN NEW ENGLAND IN CT CITY SKY/WX TMP DP RH WIND PRES REMARKS Bradley INTL CLEAR 71 55 56 N8 30.15R Hartford CLEAR 75 56 51 N7 30.13R Danbury CLEAR 67 58 72 SW3 30.16S Wtrbury/Oxford N/A 70 55 60 NW6 30.18R Bridgeport CLEAR 77 58 51 N8 30.13R Meriden CLEAR 70 58 65 CALM 30.13R New Haven CLEAR 73 58 59 N5 30.14R Chester FAIR 72 57 60 N3 30.14S Groton CLEAR 74 58 57 N5 30.12R Wilimantic CLEAR 69 59 70 N3 30.15R IN RI CITY SKY/WX TMP DP RH WIND PRES REMARKS Providence CLEAR 75 52 44 N10 30.13R Block Island CLEAR 73 64 73 NE3 30.13R Westerly CLEAR 74 54 49 N5 30.13R IN MA CITY SKY/WX TMP DP RH WIND PRES REMARKS Boston PTCLDY 74 54 49 N12 30.13R Worcester CLEAR 68 51 54 N6 30.18R Westfield CLEAR 71 55 56 NE6 30.16R Provincetown CLEAR 68 62 81 N7 30.13R Nantucket CLEAR 66 61 84 NE3 30.11S $$ ANZ330-335-338-340-345-350-353-355-300300- COASTAL MARINE OBSERVATIONS STATION/POSITION TIME SKY/WX TEMP WIND PRES VSBY WAVE AIR SEA DIR/SP/G HT/PER (UTC) (F) (DEG/KT/KT) (MB) (MI) (FT/S) NY HARB ENTRANCE 0050 81 78 20/ 8/ 10 1019.0 3/13 20S FIRE ISLAND 0050 76 76 270/ 2/ 4 1018.8 3/13 GREAT SOUTH BAY 0115 80 80 360/ 6/ 8 N/A 23 SSW MONTAUK P 0050 78 76 350/ 8/ 12 1019.3 4/12 15 E BARNEGAT LI 0130 78 N/A 3/13 HUDSON CANYON 0050 79 79 1019.1 3/13 KINGS POINT 0100 80 78 1019.6 EXECUTION ROCKS 0100 80 360/ 8/ 10 N/A CENTRAL LI SOUND 0100 78 76 30/ 10/ 12 N/A 1 EASTERN LI SOUND 0100 74 71 360/ 6/ 8 N/A ROBBINS REEF 0100 83 330/ 9/ 12 1019.1 $$ >>>>>>>>>>>>>>>>>>>>>>>>>>>> KEY <<<<<<<<<<<<<<<<<<<<<<<<<<< > < > SKY/WX - Sky Condition/Present Weather < > TMP - Temperature in Fahrenheit < > DP - Dew Point in Fahrenheit < > RH - Relative Humidity in Percent < > WIND - Direction (from) and Speed in MPH < > PRES - Mean Sea Level Pressure (inches of Hg) < > WCI - Wind Chill Index < > VSB - VISIBILITY IN MILES < > HX - HEAT INDEX < > TC - TEMPERATURE IN CELSIUS < > VRB - VARIABLE WIND DIRECTION < > < >>>>>>>>>>>>>>>>>>>>>>>>>>>> KEY <<<<<<<<<<<<<<<<<<<<<<<<<<<

USA.gov is the U.S. government's official web portal to all federal, state and local government web resources and services.